SCP
0 0 0 0 0 0 0 0 0 0 1 1 1 1 1 1 1 1 2 2 3 3 3 3 2 2 3 4 5 6 5 6 6 6 6 5 5 5 6 6 5 5 5 5
1 1 0 0 0 0 0 0 0 0 1 1 1 1 1 1 1 2 2 2 3 3 3 3 2 2 3 4 5 6 6 6 6 6 6 6 6 6 6 6 6 5 5 5
1 1 0 0 0 0 0 0 0 0 1 1 1 1 2 2 2 2 2 2 3 3 4 4 4 4 4 5 6 7 8 7 7 7 7 7 7 7 7 7 7 6 5 5
1 0 0 0 0 0 0 0 0 0 0 0 1 1 2 3 2 2 2 2 3 3 4 5 6 7 7 7 8 9 9 9 7 6 6 6 7 8 9 9 9 8 6 5
0 0 0 0 0 0 0 0 0 0 0 0 1 1 2 2 2 2 3 3 3 4 5 5 6 7 8 8 9 9 9 8 6 5 5 6 8 8 8 9 9 8 7 6
0 0 0 0 0 0 0 0 0 0 0 0 1 1 2 2 2 3 4 4 4 5 5 5 6 6 7 7 8 8 8 6 5 4 5 7 8 8 7 7 8 7 7 7
0 0 0 0 0 0 0 0 0 0 0 0 1 1 2 2 2 4 4 5 5 4 5 5 7 7 7 8 8 9 8 6 5 4 5 7 9 8 7 6 6 6 7 7
0 0 0 0 0 0 0 0 0 0 0 1 1 1 2 3 3 4 4 4 4 4 4 5 6 7 7 7 7 8 7 5 4 4 6 8 9 8 6 5 5 6 6 6
0 0 0 0 0 0 0 0 0 0 0 1 1 2 2 3 4 4 3 3 3 3 3 3 4 5 5 4 4 5 4 4 3 4 5 6 7 6 5 5 5 5 6 6
0 0 0 0 0 0 0 0 0 0 0 1 1 2 2 3 3 3 3 2 2 2 2 2 3 4 4 3 3 3 3 3 3 3 3 3 4 4 4 4 5 5 5 6
0 0 0 0 0 0 0 0 0 0 0 0 1 1 2 3 3 3 2 2 2 3 2 2 3 4 4 3 2 2 3 3 3 2 2 2 3 4 4 4 4 5 5 5
0 0 0 0 0 0 0 0 0 0 0 0 1 2 3 4 3 3 2 2 2 2 2 2 3 4 4 2 2 2 2 2 2 3 3 3 4 5 5 5 4 4 4 4
0 0 0 0 0 0 0 0 0 0 0 0 1 2 4 4 3 2 2 2 2 2 1 2 2 2 2 1 1 1 1 2 2 2 3 3 5 6 6 5 4 3 3 3
0 0 0 0 0 0 0 0 0 0 1 1 1 2 3 3 2 2 2 2 1 1 1 1 1 1 1 1 0 0 1 1 1 1 2 2 4 5 6 5 4 3 2 2
0 0 0 0 0 0 0 0 0 1 1 1 1 1 2 2 2 2 2 1 1 1 1 1 1 1 0 0 0 0 0 1 1 1 1 1 2 4 4 4 3 2 2 2
1 1 0 0 0 0 0 1 1 1 1 1 1 1 1 2 2 2 1 1 1 1 1 0 0 0 0 0 0 0 0 1 1 1 1 1 1 2 3 3 2 2 2 2
1 1 1 0 0 0 1 1 1 1 1 1 1 1 1 1 1 1 1 1 1 1 1 1 0 1 1 1 1 1 1 1 1 1 1 1 1 1 2 2 2 2 2 2
2 2 1 0 0 0 0 1 1 1 1 1 1 1 1 1 1 1 1 1 1 1 1 1 1 1 1 1 1 1 1 1 1 1 1 1 1 1 1 1 1 2 2 2
1 1 1 0 0 0 0 0 0 0 1 1 1 1 1 1 1 1 1 1 1 1 1 1 1 1 1 2 1 1 1 1 1 1 1 1 1 1 1 1 1 2 2 2
1 1 1 0 0 0 0 0 0 0 1 1 1 1 1 0 0 0 1 1 1 1 1 1 1 1 2 2 2 1 1 1 1 1 1 1 1 1 1 2 2 2 3 2
0 0 0 0 0 0 0 0 0 0 0 0 0 1 1 0 0 0 0 1 1 1 1 1 1 2 2 2 1 1 1 1 1 1 1 1 1 1 1 2 2 3 2 2
0 0 0 0 0 0 0 0 0 0 0 0 0 0 0 0 0 0 0 1 1 1 1 1 1 2 2 2 1 1 1 1 1 1 1 1 1 1 1 2 2 2 1 1
0 0 0 0 0 0 0 0 0 0 0 0 0 0 0 0 0 0 0 1 1 1 1 1 1 1 1 1 1 1 1 1 1 1 1 1 1 2 2 2 1 1 1 1
0 0 0 0 0 0 0 0 0 0 0 0 0 0 0 0 0 0 0 1 1 1 1 1 1 1 1 1 1 1 1 2 2 2 1 1 1 2 1 1 1 1 0 0
0 0 0 0 0 0 0 0 0 0 0 0 0 0 0 0 0 0 0 0 1 1 1 1 1 1 1 1 1 1 1 2 2 1 1 1 1 1 1 1 1 0 0 0
0 0 0 1 1 0 0 0 0 0 0 0 0 0 0 0 0 0 0 0 1 1 1 1 1 1 1 1 1 1 1 2 1 1 1 1 1 1 1 1 0 0 0 0
Wind_Speed
7 7 8 8 7 8 7 5 6 2 4 3 2 1 3 4 4 4 4 4 3 4 5 4 4 4 4 2 2 2 1 1 1 1 1 1 2 2 1 1 1 1 2 2
5 9 9 7 6 6 7 6 5 3 2 2 2 2 3 4 4 4 4 4 4 4 4 4 4 3 3 3 2 2 1 1 1 2 1 1 2 2 2 1 1 2 2 3
7 4 3 5 5 5 7 7 7 4 2 5 6 6 5 5 5 4 4 4 4 4 4 3 3 3 3 3 3 2 1 1 1 1 1 2 1 2 1 2 1 2 2 3
6 3 3 5 4 4 6 6 7 7 7 6 6 5 4 5 5 5 4 3 3 4 4 3 3 3 3 2 3 2 2 2 1 1 2 2 2 2 3 2 2 2 3 3
6 4 5 4 4 4 6 8 10 11 10 8 5 4 2 4 3 3 3 3 3 3 4 3 3 3 3 3 3 3 3 2 1 2 2 2 3 3 3 2 3 2 3 3
6 4 4 4 4 5 7 9 9 9 8 6 4 3 1 2 3 2 2 2 3 3 3 4 4 4 3 3 2 2 2 2 2 2 2 2 3 4 4 3 3 2 2 3
5 4 1 2 5 5 7 7 5 5 4 5 4 2 2 3 4 4 4 2 3 4 4 4 4 3 3 3 3 2 2 2 2 2 2 2 3 3 3 3 3 3 3 2
6 3 1 2 4 5 6 7 5 6 6 5 3 2 4 5 6 6 6 4 5 5 4 4 3 2 3 3 3 2 2 2 2 2 3 3 3 3 2 3 3 3 3 3
6 5 4 3 4 5 6 6 7 7 9 7 1 4 5 4 6 6 6 4 4 4 4 3 3 2 3 3 3 2 2 2 2 2 3 3 3 3 3 3 3 3 3 3
7 8 8 4 4 5 5 7 5 5 5 6 5 3 4 4 3 3 4 4 4 4 4 4 3 3 3 3 2 2 2 2 2 2 3 3 3 3 3 3 3 3 3 4
8 6 8 6 6 6 6 5 5 5 5 6 6 4 5 3 2 3 4 5 4 4 3 3 3 3 3 3 3 2 2 2 2 2 2 3 3 3 4 3 3 3 3 4
6 5 7 9 6 5 6 6 5 4 5 5 4 2 4 4 4 4 4 4 5 4 3 3 3 3 3 4 3 3 3 3 3 2 2 2 3 3 3 4 3 3 3 4
6 4 6 5 2 2 5 5 6 5 4 5 5 2 4 4 5 5 5 5 4 4 4 4 4 4 4 4 4 4 4 3 3 3 3 3 3 3 3 3 3 4 4 4
3 3 5 6 8 8 7 7 7 6 5 4 4 3 3 4 5 5 4 5 4 4 4 4 4 4 4 4 4 4 4 4 4 3 3 3 3 3 3 3 3 3 4 4
2 4 6 9 10 9 7 7 7 6 6 5 4 5 5 5 5 5 4 4 5 5 5 5 4 4 4 4 4 4 4 4 4 4 4 3 3 3 3 2 2 3 3 4
1 4 7 8 8 6 6 7 5 5 5 5 4 4 6 5 5 5 5 4 4 4 5 5 5 5 4 4 4 4 4 4 4 4 4 4 3 2 2 2 2 3 3 3
3 4 6 7 8 7 5 5 4 4 4 5 5 4 4 4 5 5 5 5 4 4 4 5 5 4 4 4 4 4 4 4 4 4 5 4 3 2 2 3 3 3 3 3
4 6 5 7 7 6 1 4 4 4 4 5 4 4 5 5 4 4 4 5 5 4 4 4 4 4 4 4 3 3 4 4 4 4 5 5 4 3 3 3 3 3 3 3
4 4 5 5 5 5 1 2 3 2 3 5 5 5 5 5 4 3 5 5 5 4 3 3 3 4 3 4 4 4 4 4 5 5 4 5 4 3 3 3 3 3 3 3
5 4 5 6 7 6 3 4 4 1 0 5 6 6 7 6 5 4 6 6 5 4 3 2 3 3 3 4 4 4 5 4 5 5 4 4 4 3 3 3 3 3 3 3
4 5 6 7 7 3 4 5 4 3 3 6 5 5 6 6 5 4 5 4 4 3 3 3 3 3 3 4 4 5 5 4 4 4 4 3 3 3 2 2 2 3 3 3
5 5 5 6 6 2 5 4 4 4 3 4 4 4 5 5 5 5 5 4 3 3 4 3 3 3 3 3 4 5 4 4 4 4 4 3 3 4 3 2 3 3 4 4
4 3 3 2 2 2 3 4 3 2 3 4 4 4 4 5 6 6 5 4 4 4 3 3 3 3 3 3 3 4 4 4 4 3 3 3 3 2 3 3 3 3 3 3
3 1 3 3 2 1 1 2 2 2 3 3 3 4 5 5 5 5 4 4 4 4 3 3 3 4 4 3 4 4 4 4 4 4 3 3 3 2 2 2 2 2 3 3
6 5 4 5 4 3 3 3 3 3 3 4 4 4 5 5 5 4 3 3 3 3 3 3 3 4 5 3 4 4 3 3 3 4 3 4 4 2 1 1 2 2 2 2
5 5 5 4 3 3 3 3 3 3 4 4 4 5 4 4 5 4 3 2 3 3 3 3 3 5 5 4 4 3 2 3 3 4 4 4 3 2 2 1 1 1 1 1
Wind_Direction
238 240 257 262 261 289 299 290 288 257 193 219 251 222 161 180 176 158 150 152 146 124 118 109 107 107 102 106 99 91 71 61 16 359 335 329 312 299 281 255 272 265 274 279
241 244 253 267 275 296 305 290 275 252 193 236 257 242 175 189 173 155 163 157 148 131 120 113 116 117 125 124 109 97 86 51 28 2 329 290 305 288 279 298 238 251 281 287
252 270 260 279 293 295 283 291 293 291 257 231 224 228 190 177 159 161 181 160 148 136 125 128 134 126 117 121 123 109 87 59 41 345 333 328 324 311 335 319 282 252 259 267
291 312 280 265 275 296 291 296 293 279 262 254 243 250 190 179 177 178 172 147 130 125 121 113 89 80 79 88 100 94 86 59 40 355 358 334 330 322 319 313 314 310 284 276
299 302 294 296 321 317 304 301 290 277 262 261 251 264 214 180 178 174 167 151 133 114 107 104 103 88 80 71 72 73 70 51 28 354 340 318 323 317 314 317 312 300 291 280
289 288 299 324 319 302 311 303 289 276 270 269 282 286 257 178 170 164 139 112 116 100 92 84 80 83 78 75 75 77 65 36 14 348 337 325 315 312 310 311 310 300 285 275
272 239 228 331 314 323 321 319 317 308 293 291 298 297 98 99 128 127 119 140 108 88 81 78 66 59 58 62 59 53 50 22 0 342 335 323 303 297 293 305 309 305 299 302
312 308 343 326 322 323 311 309 300 304 301 292 290 46 89 82 98 94 90 83 92 81 74 74 66 59 57 58 64 57 32 14 354 339 331 325 314 308 312 314 308 308 309 312
331 321 317 325 331 325 305 305 315 304 298 301 333 103 106 80 87 84 83 71 79 76 61 55 47 50 51 57 60 48 3 355 346 339 340 334 335 332 315 301 302 314 314 315
313 307 310 331 314 285 298 316 326 312 312 311 325 43 80 64 84 78 73 70 65 65 54 50 49 42 44 42 46 38 12 10 1 347 335 342 352 332 322 325 326 319 320 322
329 314 308 313 314 327 325 314 321 322 324 311 315 17 71 72 66 66 61 59 49 59 51 33 42 48 41 30 20 17 4 6 360 346 0 0 343 333 337 331 332 334 328 322
343 323 303 302 312 321 315 319 321 314 311 301 304 28 69 68 61 62 58 53 58 50 28 25 33 28 23 18 12 6 0 357 351 353 6 352 326 329 336 332 337 333 324 321
348 322 294 296 316 348 331 325 317 318 311 311 314 28 90 61 45 48 49 51 53 43 25 25 26 23 12 9 8 359 349 352 349 348 347 342 334 337 332 327 334 334 330 327
286 286 295 303 309 319 322 325 332 330 320 328 330 356 29 27 26 34 41 42 37 36 22 20 19 16 15 5 355 342 343 350 343 346 345 343 336 327 321 327 338 335 331 329
292 298 296 292 294 301 315 327 334 336 330 321 331 348 13 20 31 32 31 32 24 16 8 10 13 13 3 351 348 344 347 347 341 338 334 331 323 317 323 329 332 328 330 336
283 291 296 295 298 303 313 319 324 336 340 336 340 7 43 38 32 25 17 15 10 356 354 2 2 2 349 342 343 343 337 336 337 330 325 318 314 315 316 319 327 333 336 336
290 286 293 289 294 295 298 336 338 354 353 336 339 12 20 14 12 7 6 0 356 358 359 355 351 346 335 335 338 329 326 328 328 320 313 313 315 324 330 333 345 339 335 334
277 294 285 282 293 289 8 24 18 13 11 6 12 8 8 10 2 8 8 5 358 5 359 350 338 330 327 330 331 328 326 324 320 317 321 331 335 345 351 351 341 338 329 316
204 255 279 288 286 279 289 13 3 358 358 14 9 4 5 5 348 7 12 12 11 9 2 335 324 320 326 328 330 334 323 316 317 324 329 328 331 338 340 343 334 333 317 308
187 213 252 276 287 297 357 26 14 335 93 28 13 6 355 342 322 351 6 1 2 2 349 331 331 326 331 331 332 329 321 323 327 327 327 330 334 334 335 328 323 316 305 301
223 230 249 270 276 290 22 8 355 322 24 15 11 8 351 344 344 343 340 351 357 348 335 340 336 331 328 328 332 319 317 321 322 324 328 327 325 317 318 318 311 303 306 306
265 265 263 267 269 278 28 5 22 35 15 359 0 2 349 339 333 330 330 340 337 333 329 337 340 332 321 329 329 323 323 318 316 317 318 315 316 318 334 329 306 302 297 296
260 282 294 306 329 55 34 52 67 35 344 339 341 341 332 321 319 324 332 338 337 335 334 334 331 322 318 325 324 320 316 312 316 318 317 312 316 318 318 309 307 306 302 311
274 287 271 279 264 255 4 29 18 354 326 321 325 317 313 310 314 321 325 326 327 325 323 325 320 313 315 320 322 319 317 320 320 317 312 304 292 295 309 321 324 325 334 335
304 299 281 269 269 277 298 325 334 333 330 330 328 318 315 315 316 317 321 323 322 314 315 319 320 315 319 325 324 319 319 329 321 309 302 297 293 291 306 315 326 342 357 336
275 274 272 281 299 301 313 327 328 322 315 317 315 314 317 319 317 317 315 318 316 311 307 312 320 319 320 321 319 322 328 320 312 307 307 304 301 299 281 243 245 14 240 262